TAP2005 LPMA-LPPR

Flight info

Callsign TAP2005
Flight time 1h 40m
Altitude 38000
Route DEGUN1W DEGUN DCT VABEM DCT ASMAR DCT DIRMA DCT ASMOV ASMOV3A
Aircraft A339/H-SADE1E2E3GHIJ3J5M1P2RWXY/LB2D1

Departure

Time 2026-05-04 18:53
Airport Cristiano Ronaldo International Airport (LPMA)

Arrival

Time 2026-05-04 20:33
Airport Francisco de Sá Carneiro Airport (LPPR)
Time Latitude Longitude Altitude Speed Heading
2026-05-04 18:28 32.69584 -16.77351 194 ft 0 kts 137°
2026-05-04 18:46 32.69587 -16.77354 194 ft 2 kts 136°
2026-05-04 18:47 32.69597 -16.77368 212 ft 2 kts 135°
2026-05-04 18:47 32.69606 -16.77381 210 ft 2 kts 131°
2026-05-04 18:47 32.69614 -16.77394 209 ft 2 kts 124°
2026-05-04 18:47 32.69620 -16.77408 211 ft 2 kts 115°
2026-05-04 18:48 32.69624 -16.77423 211 ft 2 kts 102°
2026-05-04 18:48 32.69625 -16.77439 211 ft 2 kts 84°
2026-05-04 18:48 32.69622 -16.77455 211 ft 2 kts 64°
2026-05-04 18:48 32.69616 -16.77469 211 ft 2 kts 46°
2026-05-04 18:49 32.69617 -16.77470 209 ft 0 kts 40°
2026-05-04 18:50 32.69683 -16.77385 201 ft 32 kts 51°
2026-05-04 18:50 32.69857 -16.77182 218 ft 24 kts 14°
2026-05-04 18:50 32.70045 -16.77155 214 ft 28 kts 32°
2026-05-04 18:51 32.70207 -16.76966 216 ft 38 kts 48°
2026-05-04 18:51 32.70410 -16.76713 218 ft 47 kts 45°
2026-05-04 18:51 32.70639 -16.76466 221 ft 39 kts 42°
2026-05-04 18:51 32.70686 -16.76454 212 ft 2 kts 316°
2026-05-04 18:52 32.70685 -16.76489 212 ft 7 kts 256°
2026-05-04 18:52 32.70636 -16.76536 216 ft 12 kts 195°
2026-05-04 18:52 32.70526 -16.76582 218 ft 21 kts 219°
2026-05-04 18:52 32.70475 -16.76638 218 ft 12 kts 223°
2026-05-04 18:53 32.70207 -16.76948 222 ft 100 kts 224°
2026-05-04 18:53 32.69516 -16.77763 215 ft 181 kts 224°
2026-05-04 18:53 32.68520 -16.78857 1010 ft 195 kts 213°
2026-05-04 18:53 32.67283 -16.79358 2452 ft 185 kts 181°
2026-05-04 18:54 32.66166 -16.78802 3708 ft 182 kts 141°
2026-05-04 18:54 32.65140 -16.77798 4259 ft 200 kts 155°
2026-05-04 18:54 32.63742 -16.77382 4848 ft 215 kts 173°
2026-05-04 18:54 32.62220 -16.77126 5470 ft 231 kts 173°
2026-05-04 18:55 32.60578 -16.76835 6141 ft 246 kts 173°
2026-05-04 18:55 32.57006 -16.76195 7349 ft 272 kts 173°
2026-05-04 18:55 32.55218 -16.75682 8081 ft 278 kts 157°
2026-05-04 18:56 32.53684 -16.74212 8909 ft 285 kts 128°
2026-05-04 18:56 32.52899 -16.72036 9712 ft 292 kts 100°
2026-05-04 18:56 32.53002 -16.69618 10415 ft 301 kts 75°
2026-05-04 18:56 32.53973 -16.67379 10752 ft 321 kts 51°
2026-05-04 18:57 32.55697 -16.65596 11110 ft 338 kts 35°
2026-05-04 18:57 32.57640 -16.63918 11542 ft 353 kts 36°
2026-05-04 18:57 32.59572 -16.62034 11992 ft 366 kts 41°
2026-05-04 18:57 32.61429 -16.59892 12462 ft 378 kts 46°
2026-05-04 18:58 32.63228 -16.57543 12933 ft 389 kts 47°
2026-05-04 18:58 32.65099 -16.55174 13474 ft 397 kts 46°
2026-05-04 18:58 32.67028 -16.52804 14123 ft 401 kts 45°
2026-05-04 18:58 32.68999 -16.50422 14710 ft 406 kts 45°
2026-05-04 18:59 32.70982 -16.48053 15278 ft 411 kts 44°
2026-05-04 18:59 32.73019 -16.45642 15867 ft 416 kts 44°
2026-05-04 18:59 32.75098 -16.43201 16450 ft 422 kts 44°
2026-05-04 18:59 32.77207 -16.40740 17056 ft 427 kts 43°
2026-05-04 19:00 32.79345 -16.38256 17645 ft 432 kts 43°
2026-05-04 19:00 32.81515 -16.35742 18213 ft 438 kts 43°
2026-05-04 19:00 32.83711 -16.33205 18750 ft 443 kts 43°
2026-05-04 19:00 32.85928 -16.30648 19287 ft 446 kts 43°
2026-05-04 19:01 32.88163 -16.28073 19827 ft 449 kts 43°
2026-05-04 19:01 32.90415 -16.25478 20342 ft 452 kts 43°
2026-05-04 19:01 32.92658 -16.22893 20835 ft 456 kts 43°
2026-05-04 19:01 32.94944 -16.20258 21349 ft 459 kts 43°
2026-05-04 19:02 32.97253 -16.17598 21852 ft 462 kts 43°
2026-05-04 19:02 32.99571 -16.14926 22340 ft 465 kts 43°
2026-05-04 19:02 33.01911 -16.12226 22814 ft 469 kts 43°
2026-05-04 19:02 33.04241 -16.09537 23283 ft 473 kts 43°
2026-05-04 19:03 33.06615 -16.06796 23743 ft 476 kts 43°
2026-05-04 19:03 33.09021 -16.04017 24141 ft 479 kts 43°
2026-05-04 19:03 33.11422 -16.01242 24580 ft 482 kts 43°
2026-05-04 19:03 33.13812 -15.98479 24986 ft 485 kts 43°
2026-05-04 19:04 33.16244 -15.95664 25400 ft 487 kts 43°
2026-05-04 19:04 33.18683 -15.92840 25822 ft 490 kts 43°
2026-05-04 19:04 33.21140 -15.89989 26219 ft 493 kts 43°
2026-05-04 19:04 33.23611 -15.87121 26646 ft 496 kts 43°
2026-05-04 19:05 33.26097 -15.84234 27053 ft 498 kts 43°
2026-05-04 19:05 33.28588 -15.81338 27443 ft 501 kts 43°
2026-05-04 19:05 33.31089 -15.78428 27873 ft 504 kts 43°
2026-05-04 19:05 33.33610 -15.75489 28254 ft 506 kts 43°
2026-05-04 19:06 33.36107 -15.72578 28644 ft 509 kts 43°
2026-05-04 19:06 33.38649 -15.69607 28995 ft 512 kts 43°
2026-05-04 19:06 33.41369 -15.66845 29357 ft 511 kts 33°
2026-05-04 19:06 33.44303 -15.64474 29961 ft 507 kts 30°
2026-05-04 19:07 33.47276 -15.62219 30479 ft 505 kts 29°
2026-05-04 19:07 33.50272 -15.60004 30965 ft 504 kts 28°
2026-05-04 19:07 33.53262 -15.57824 31431 ft 503 kts 28°
2026-05-04 19:07 33.56229 -15.55677 31907 ft 502 kts 28°
2026-05-04 19:08 33.59223 -15.53517 32403 ft 502 kts 28°
2026-05-04 19:08 33.62227 -15.51354 32921 ft 501 kts 28°
2026-05-04 19:08 33.65213 -15.49203 33456 ft 500 kts 27°
2026-05-04 19:08 33.68193 -15.47057 33994 ft 499 kts 27°
2026-05-04 19:09 33.71173 -15.44910 34477 ft 499 kts 27°
2026-05-04 19:09 33.74126 -15.42782 34883 ft 499 kts 27°
2026-05-04 19:09 33.77116 -15.40627 35299 ft 500 kts 27°
2026-05-04 19:09 33.80099 -15.38475 35712 ft 501 kts 27°
2026-05-04 19:10 33.83091 -15.36317 36132 ft 501 kts 27°
2026-05-04 19:10 33.86086 -15.34154 36536 ft 502 kts 27°
2026-05-04 19:10 33.89055 -15.32011 36955 ft 503 kts 27°
2026-05-04 19:10 33.92059 -15.29839 37380 ft 503 kts 27°
2026-05-04 19:11 33.95065 -15.27664 37811 ft 501 kts 27°
2026-05-04 19:11 33.98031 -15.25514 38008 ft 493 kts 27°
2026-05-04 19:11 34.03785 -15.21331 38123 ft 474 kts 27°
2026-05-04 19:12 34.12240 -15.15187 38146 ft 477 kts 27°
2026-05-04 19:13 34.17931 -15.11053 38148 ft 481 kts 27°
2026-05-04 19:13 34.23655 -15.06883 38149 ft 478 kts 27°
2026-05-04 19:14 34.29346 -15.02728 38157 ft 478 kts 27°
2026-05-04 19:14 34.35019 -14.98580 38155 ft 479 kts 27°
2026-05-04 19:15 34.40724 -14.94401 38160 ft 479 kts 27°
2026-05-04 19:15 34.46438 -14.90208 38163 ft 478 kts 27°
2026-05-04 19:16 34.52132 -14.86022 38161 ft 479 kts 27°
2026-05-04 19:16 34.57810 -14.81841 38163 ft 480 kts 27°
2026-05-04 19:17 34.63528 -14.77623 38163 ft 479 kts 27°
2026-05-04 19:17 34.69232 -14.73407 38168 ft 479 kts 27°
2026-05-04 19:18 34.74934 -14.69187 38171 ft 480 kts 27°
2026-05-04 19:18 34.80614 -14.64977 38152 ft 481 kts 27°
2026-05-04 19:19 34.86333 -14.60730 38156 ft 480 kts 27°
2026-05-04 19:19 34.91069 -14.57207 38181 ft 479 kts 27°
2026-05-04 19:20 34.97704 -14.52265 38184 ft 480 kts 27°
2026-05-04 19:20 35.03414 -14.48003 38170 ft 481 kts 27°
2026-05-04 19:21 35.09097 -14.43755 38182 ft 480 kts 27°
2026-05-04 19:21 35.14787 -14.39495 38184 ft 480 kts 27°
2026-05-04 19:22 35.20480 -14.35226 38176 ft 481 kts 27°
2026-05-04 19:22 35.26182 -14.30945 38175 ft 481 kts 27°
2026-05-04 19:23 35.31890 -14.26651 38180 ft 480 kts 27°
2026-05-04 19:23 35.37586 -14.22358 38178 ft 481 kts 27°
2026-05-04 19:24 35.43264 -14.18073 38181 ft 482 kts 27°
2026-05-04 19:24 35.48973 -14.13756 38179 ft 481 kts 27°
2026-05-04 19:25 35.54674 -14.09437 38182 ft 481 kts 27°
2026-05-04 19:25 35.60369 -14.05117 38188 ft 481 kts 27°
2026-05-04 19:26 35.66074 -14.00781 38189 ft 483 kts 27°
2026-05-04 19:26 35.70827 -13.97164 38187 ft 482 kts 27°
2026-05-04 19:27 35.76527 -13.92818 38187 ft 481 kts 27°
2026-05-04 19:27 35.82228 -13.88462 38186 ft 481 kts 27°
2026-05-04 19:28 35.87891 -13.84131 38185 ft 481 kts 27°
2026-05-04 19:28 35.93578 -13.79772 38183 ft 480 kts 27°
2026-05-04 19:29 35.99251 -13.75415 38183 ft 479 kts 27°
2026-05-04 19:29 36.04883 -13.71084 38189 ft 479 kts 27°
2026-05-04 19:30 36.10555 -13.66717 38180 ft 479 kts 27°
2026-05-04 19:30 36.16177 -13.62380 38184 ft 477 kts 27°
2026-05-04 19:31 36.21814 -13.58023 38181 ft 477 kts 27°
2026-05-04 19:31 36.27449 -13.53661 38180 ft 477 kts 27°
2026-05-04 19:32 36.33040 -13.49326 38167 ft 476 kts 27°
2026-05-04 19:32 36.38647 -13.44968 38169 ft 475 kts 27°
2026-05-04 19:33 36.44255 -13.40605 38176 ft 475 kts 27°
2026-05-04 19:33 36.49871 -13.36226 38178 ft 476 kts 27°
2026-05-04 19:34 36.55592 -13.32150 38183 ft 471 kts 21°
2026-05-04 19:34 36.61429 -13.28562 38184 ft 470 kts 20°
2026-05-04 19:35 36.67331 -13.25042 38187 ft 470 kts 19°
2026-05-04 19:35 36.73246 -13.21543 38185 ft 470 kts 19°
2026-05-04 19:36 36.79119 -13.18071 38185 ft 469 kts 19°
2026-05-04 19:36 36.85034 -13.14573 38185 ft 469 kts 19°
2026-05-04 19:37 36.90911 -13.11093 38183 ft 470 kts 19°
2026-05-04 19:37 36.96829 -13.07582 38181 ft 470 kts 19°
2026-05-04 19:38 37.02739 -13.04069 38186 ft 469 kts 19°
2026-05-04 19:38 37.08605 -13.00578 38184 ft 469 kts 19°
2026-05-04 19:39 37.14517 -12.97054 38182 ft 470 kts 19°
2026-05-04 19:39 37.20431 -12.93521 38183 ft 470 kts 19°
2026-05-04 19:40 37.26341 -12.89984 38185 ft 469 kts 19°
2026-05-04 19:40 37.32208 -12.86468 38181 ft 470 kts 19°
2026-05-04 19:41 37.38125 -12.82917 38185 ft 470 kts 19°
2026-05-04 19:41 37.44038 -12.79361 38183 ft 470 kts 19°
2026-05-04 19:42 37.49904 -12.75827 38186 ft 469 kts 19°
2026-05-04 19:42 37.55802 -12.72268 38181 ft 469 kts 19°
2026-05-04 19:43 37.61665 -12.68726 38185 ft 470 kts 19°
2026-05-04 19:43 37.67578 -12.65147 38183 ft 469 kts 19°
2026-05-04 19:44 37.73466 -12.61575 38182 ft 468 kts 19°
2026-05-04 19:44 37.79309 -12.58026 38186 ft 468 kts 19°
2026-05-04 19:45 37.85202 -12.54441 38172 ft 468 kts 19°
2026-05-04 19:45 37.91040 -12.50884 38179 ft 468 kts 19°
2026-05-04 19:46 37.96908 -12.47300 38185 ft 467 kts 19°
2026-05-04 19:46 38.02757 -12.43721 38183 ft 466 kts 19°
2026-05-04 19:47 38.08600 -12.40138 38182 ft 466 kts 20°
2026-05-04 19:47 38.14409 -12.36572 38181 ft 466 kts 20°
2026-05-04 19:48 38.20233 -12.32987 38183 ft 464 kts 20°
2026-05-04 19:48 38.26048 -12.29402 38179 ft 464 kts 20°
2026-05-04 19:49 38.31863 -12.25813 38178 ft 465 kts 20°
2026-05-04 19:49 38.37651 -12.22231 38182 ft 464 kts 20°
2026-05-04 19:50 38.43464 -12.18625 38180 ft 463 kts 20°
2026-05-04 19:50 38.49266 -12.15021 38178 ft 463 kts 20°
2026-05-04 19:51 38.55067 -12.11411 38178 ft 463 kts 20°
2026-05-04 19:51 38.60833 -12.07818 38175 ft 463 kts 20°
2026-05-04 19:52 38.66629 -12.04198 38173 ft 462 kts 20°
2026-05-04 19:52 38.72387 -12.00596 38173 ft 463 kts 20°
2026-05-04 19:53 38.78191 -11.96959 38174 ft 463 kts 19°
2026-05-04 19:53 38.83976 -11.93325 38171 ft 462 kts 19°
2026-05-04 19:54 38.89762 -11.89686 38160 ft 463 kts 19°
2026-05-04 19:54 38.95515 -11.86061 38167 ft 464 kts 19°
2026-05-04 19:55 39.01312 -11.82400 38175 ft 463 kts 19°
2026-05-04 19:55 39.07071 -11.78756 38172 ft 463 kts 19°
2026-05-04 19:56 39.12856 -11.75090 38172 ft 463 kts 19°
2026-05-04 19:56 39.18642 -11.71418 38169 ft 464 kts 19°
2026-05-04 19:57 39.24440 -11.67731 38173 ft 463 kts 19°
2026-05-04 19:57 39.30196 -11.64063 38170 ft 463 kts 19°
2026-05-04 19:58 39.35867 -11.60074 38178 ft 473 kts 31°
2026-05-04 19:58 39.40738 -11.54259 38119 ft 483 kts 39°
2026-05-04 19:58 39.43125 -11.51158 37760 ft 490 kts 40°
2026-05-04 19:59 39.45538 -11.47960 37485 ft 507 kts 40°
2026-05-04 19:59 39.48015 -11.44635 37202 ft 518 kts 40°
2026-05-04 19:59 39.50507 -11.41252 36891 ft 518 kts 40°
2026-05-04 19:59 39.52978 -11.37869 36583 ft 516 kts 40°
2026-05-04 20:00 39.55438 -11.34483 36276 ft 512 kts 40°
2026-05-04 20:00 39.57869 -11.31124 35981 ft 507 kts 40°
2026-05-04 20:00 39.60272 -11.27797 35679 ft 504 kts 40°
2026-05-04 20:00 39.62640 -11.24515 35396 ft 501 kts 40°
2026-05-04 20:01 39.65021 -11.21212 35110 ft 499 kts 40°
2026-05-04 20:01 39.67387 -11.17927 34830 ft 497 kts 39°
2026-05-04 20:01 39.69752 -11.14643 34557 ft 496 kts 39°
2026-05-04 20:01 39.72072 -11.11416 34275 ft 494 kts 39°
2026-05-04 20:02 39.74417 -11.08153 33975 ft 492 kts 39°
2026-05-04 20:02 39.76754 -11.04901 33646 ft 490 kts 39°
2026-05-04 20:02 39.79079 -11.01665 33329 ft 488 kts 39°
2026-05-04 20:02 39.81392 -10.98440 33015 ft 485 kts 39°
2026-05-04 20:03 39.83693 -10.95229 32655 ft 484 kts 39°
2026-05-04 20:03 39.85992 -10.92019 32294 ft 482 kts 38°
2026-05-04 20:03 39.88272 -10.88831 31942 ft 481 kts 38°
2026-05-04 20:03 39.90519 -10.85687 31601 ft 479 kts 38°
2026-05-04 20:04 39.92779 -10.82519 31250 ft 475 kts 38°
2026-05-04 20:04 39.95019 -10.79372 30908 ft 471 kts 38°
2026-05-04 20:04 39.97241 -10.76249 30574 ft 467 kts 38°
2026-05-04 20:04 39.99450 -10.73139 30243 ft 465 kts 38°
2026-05-04 20:05 40.01644 -10.70053 29858 ft 463 kts 38°
2026-05-04 20:05 40.03829 -10.66982 29475 ft 460 kts 38°
2026-05-04 20:05 40.06001 -10.63926 29094 ft 456 kts 38°
2026-05-04 20:05 40.08144 -10.60905 28702 ft 451 kts 38°
2026-05-04 20:06 40.10239 -10.57948 28334 ft 446 kts 38°
2026-05-04 20:06 40.12343 -10.54977 27963 ft 443 kts 38°
2026-05-04 20:06 40.14425 -10.52034 27600 ft 440 kts 38°
2026-05-04 20:06 40.16508 -10.49088 27236 ft 437 kts 38°
2026-05-04 20:07 40.18563 -10.46177 26885 ft 434 kts 39°
2026-05-04 20:07 40.20604 -10.43286 26524 ft 430 kts 39°
2026-05-04 20:07 40.22627 -10.40415 26150 ft 427 kts 39°
2026-05-04 20:07 40.24636 -10.37562 25761 ft 423 kts 39°
2026-05-04 20:08 40.26597 -10.34775 25413 ft 420 kts 39°
2026-05-04 20:08 40.28568 -10.31970 25052 ft 417 kts 39°
2026-05-04 20:08 40.30530 -10.29176 24701 ft 414 kts 39°
2026-05-04 20:08 40.32473 -10.26406 24345 ft 411 kts 40°
2026-05-04 20:09 40.34400 -10.23655 23993 ft 408 kts 40°
2026-05-04 20:09 40.36284 -10.20964 23643 ft 404 kts 40°
2026-05-04 20:09 40.38182 -10.18249 23219 ft 401 kts 40°
2026-05-04 20:09 40.40066 -10.15552 22815 ft 398 kts 40°
2026-05-04 20:10 40.41928 -10.12884 22408 ft 395 kts 40°
2026-05-04 20:10 40.43781 -10.10226 22022 ft 392 kts 41°
2026-05-04 20:10 40.45623 -10.07580 21616 ft 390 kts 41°
2026-05-04 20:10 40.47445 -10.04960 21227 ft 387 kts 41°
2026-05-04 20:11 40.49240 -10.02378 20847 ft 385 kts 41°
2026-05-04 20:11 40.51036 -9.99789 20454 ft 382 kts 41°
2026-05-04 20:11 40.52825 -9.97211 20080 ft 380 kts 41°
2026-05-04 20:11 40.54605 -9.94640 19716 ft 377 kts 41°
2026-05-04 20:12 40.56368 -9.92093 19356 ft 375 kts 42°
2026-05-04 20:12 40.58118 -9.89560 18993 ft 372 kts 42°
2026-05-04 20:12 40.59853 -9.87046 18639 ft 370 kts 42°
2026-05-04 20:12 40.61555 -9.84578 18272 ft 367 kts 42°
2026-05-04 20:13 40.63264 -9.82097 17864 ft 364 kts 42°
2026-05-04 20:13 40.64941 -9.79658 17501 ft 360 kts 42°
2026-05-04 20:13 40.66615 -9.77226 17127 ft 357 kts 42°
2026-05-04 20:13 40.68279 -9.74805 16755 ft 354 kts 42°
2026-05-04 20:14 40.69932 -9.72399 16407 ft 353 kts 42°
2026-05-04 20:14 40.71584 -9.69995 16042 ft 353 kts 43°
2026-05-04 20:14 40.73231 -9.67597 15677 ft 352 kts 43°
2026-05-04 20:14 40.74855 -9.65228 15308 ft 351 kts 43°
2026-05-04 20:15 40.76483 -9.62852 14926 ft 349 kts 43°
2026-05-04 20:15 40.78112 -9.60473 14522 ft 347 kts 43°
2026-05-04 20:15 40.79720 -9.58123 14122 ft 344 kts 43°
2026-05-04 20:15 40.80779 -9.56570 13879 ft 342 kts 43°
2026-05-04 20:16 40.82364 -9.54247 13447 ft 339 kts 43°
2026-05-04 20:16 40.83955 -9.51976 13022 ft 335 kts 42°
2026-05-04 20:16 40.85559 -9.49760 12606 ft 332 kts 42°
2026-05-04 20:16 40.87161 -9.47590 12207 ft 327 kts 41°
2026-05-04 20:17 40.88752 -9.45468 11835 ft 323 kts 41°
2026-05-04 20:17 40.90336 -9.43375 11453 ft 320 kts 41°
2026-05-04 20:17 40.91890 -9.41334 11074 ft 316 kts 41°
2026-05-04 20:17 40.93446 -9.39296 10731 ft 310 kts 41°
2026-05-04 20:18 40.94819 -9.37133 10438 ft 307 kts 57°
2026-05-04 20:18 40.95533 -9.34488 10173 ft 303 kts 74°
2026-05-04 20:18 40.95942 -9.31781 9897 ft 297 kts 78°
2026-05-04 20:18 40.96232 -9.29101 9600 ft 291 kts 81°
2026-05-04 20:19 40.96433 -9.26501 9309 ft 285 kts 83°
2026-05-04 20:19 40.96568 -9.23899 9017 ft 283 kts 84°
2026-05-04 20:19 40.96659 -9.21294 8740 ft 283 kts 86°
2026-05-04 20:19 40.96716 -9.18687 8455 ft 284 kts 86°
2026-05-04 20:20 40.96744 -9.16410 8203 ft 282 kts 87°
2026-05-04 20:20 40.96758 -9.13822 7925 ft 280 kts 88°
2026-05-04 20:20 40.96759 -9.11254 7645 ft 278 kts 88°
2026-05-04 20:20 40.96751 -9.08700 7371 ft 276 kts 88°
2026-05-04 20:21 40.96736 -9.06186 7092 ft 268 kts 88°
2026-05-04 20:21 40.96718 -9.03791 6823 ft 257 kts 88°
2026-05-04 20:21 40.96678 -8.99221 6254 ft 241 kts 88°
2026-05-04 20:22 40.96658 -8.97022 5972 ft 237 kts 88°
2026-05-04 20:22 40.96641 -8.94830 5677 ft 238 kts 88°
2026-05-04 20:22 40.96623 -8.92646 5416 ft 237 kts 88°
2026-05-04 20:22 40.96605 -8.90471 5155 ft 236 kts 88°
2026-05-04 20:23 40.96589 -8.88335 4915 ft 235 kts 88°
2026-05-04 20:23 40.96571 -8.86177 4702 ft 232 kts 88°
2026-05-04 20:23 40.96551 -8.84061 4535 ft 228 kts 88°
2026-05-04 20:23 40.96527 -8.81974 4350 ft 225 kts 88°
2026-05-04 20:24 40.96512 -8.79916 4093 ft 224 kts 88°
2026-05-04 20:24 40.96492 -8.77863 3868 ft 219 kts 88°
2026-05-04 20:24 40.96494 -8.75893 3760 ft 208 kts 84°
2026-05-04 20:24 40.96595 -8.74033 3719 ft 198 kts 80°
2026-05-04 20:25 40.96771 -8.72233 3715 ft 197 kts 77°
2026-05-04 20:25 40.96991 -8.70473 3707 ft 196 kts 76°
2026-05-04 20:25 40.97244 -8.68707 3703 ft 195 kts 75°
2026-05-04 20:25 40.97510 -8.66950 3702 ft 195 kts 74°
2026-05-04 20:26 40.97787 -8.65189 3696 ft 195 kts 74°
2026-05-04 20:26 40.98062 -8.63430 3698 ft 196 kts 74°
2026-05-04 20:26 40.98566 -8.61797 3698 ft 189 kts 43°
2026-05-04 20:26 40.99662 -8.61015 3632 ft 183 kts
2026-05-04 20:27 41.00888 -8.61321 3376 ft 180 kts 339°
2026-05-04 20:27 41.02078 -8.61866 3132 ft 180 kts 339°
2026-05-04 20:27 41.03252 -8.62382 3036 ft 173 kts 340°
2026-05-04 20:27 41.04370 -8.62768 3009 ft 158 kts 345°
2026-05-04 20:28 41.05397 -8.63056 3002 ft 144 kts 345°
2026-05-04 20:28 41.06361 -8.63313 2997 ft 138 kts 346°
2026-05-04 20:28 41.07290 -8.63554 3000 ft 136 kts 346°
2026-05-04 20:28 41.08226 -8.63790 3010 ft 137 kts 346°
2026-05-04 20:29 41.09165 -8.64033 3009 ft 137 kts 346°
2026-05-04 20:29 41.10096 -8.64276 3011 ft 138 kts 345°
2026-05-04 20:29 41.11051 -8.64532 2759 ft 140 kts 346°
2026-05-04 20:29 41.11985 -8.64780 2521 ft 134 kts 346°
2026-05-04 20:30 41.12877 -8.65010 2305 ft 127 kts 347°
2026-05-04 20:30 41.13742 -8.65228 2142 ft 127 kts 346°
2026-05-04 20:30 41.14611 -8.65458 1978 ft 129 kts 346°
2026-05-04 20:30 41.15491 -8.65685 1764 ft 127 kts 347°
2026-05-04 20:31 41.16349 -8.65912 1573 ft 125 kts 346°
2026-05-04 20:31 41.17205 -8.66135 1416 ft 127 kts 347°
2026-05-04 20:31 41.18079 -8.66367 1276 ft 127 kts 347°
2026-05-04 20:31 41.18942 -8.66595 1102 ft 126 kts 349°
2026-05-04 20:32 41.19816 -8.66805 891 ft 128 kts 347°
2026-05-04 20:32 41.20727 -8.67041 735 ft 133 kts 346°
2026-05-04 20:32 41.21635 -8.67306 620 ft 139 kts 346°
2026-05-04 20:32 41.22569 -8.67525 408 ft 132 kts 346°
2026-05-04 20:33 41.23445 -8.67759 263 ft 126 kts 347°
2026-05-04 20:33 41.24215 -8.67982 221 ft 101 kts 349°
2026-05-04 20:33 41.24649 -8.68090 213 ft 33 kts 354°
2026-05-04 20:33 41.24737 -8.68169 211 ft 7 kts 273°
2026-05-04 20:34 41.24652 -8.68244 212 ft 33 kts 199°
2026-05-04 20:34 41.24395 -8.68264 214 ft 40 kts 169°
2026-05-04 20:34 41.24077 -8.68179 224 ft 25 kts 168°
2026-05-04 20:34 41.23996 -8.68158 226 ft 11 kts 169°
2026-05-04 20:35 41.23992 -8.68157 226 ft 0 kts 169°
2026-05-04 20:37 41.23942 -8.68143 226 ft 23 kts 169°
2026-05-04 20:37 41.23710 -8.68082 233 ft 42 kts 169°
2026-05-04 20:38 41.23542 -8.67952 235 ft 22 kts 93°
2026-05-04 20:38 41.23596 -8.67714 237 ft 32 kts 73°
2026-05-04 20:38 41.23618 -8.67589 238 ft 0 kts 79°
2026-05-04 20:38 41.23624 -8.67538 239 ft 11 kts 81°
2026-05-04 20:39 41.23688 -8.67454 240 ft 17 kts
2026-05-04 20:39 41.23836 -8.67480 240 ft 26 kts 348°
2026-05-04 20:39 41.23941 -8.67453 240 ft 12 kts 54°
2026-05-04 20:39 41.23955 -8.67388 240 ft 10 kts 86°
2026-05-04 20:40 41.23945 -8.67365 240 ft 6 kts 127°
2026-05-04 20:40 41.23922 -8.67320 240 ft 0 kts 124°